Date String (YYYY-MM-DD hh:mm:ss) UTC,Instrument flags,absolute air pressure of the measurement (hPa),sample flow rate (lpm),inlet stack bypass flow (lpm),air temperature of the measurement (°C),ambient temperature measured by the external sensor (°C),aerosol sample conditioner tube jacket temperature (°C),OPC LED temperature (°C),internal box temperature (°C),relative humidity of the measurement (%),span deviation,mass concentration of particles derived from Lorenz-Mie calculation of OPC scattering (μg/m³),mass concentration of particles derived from Lorenz-Mie calculation of OPC scattering (μg/m³),mass concentration of particles derived from Lorenz-Mie calculation of OPC scattering (μg/m³)
DateTimeUTC,F1_M11,P_M11,Q1_M11,Q2_M11,T1_M11,T2_M11,T3_M11,T4_M11,T5_M11,U1_M11,ZSPAN_M11,X0_M11,X2_M11,X1_M11
2024-01-07 23:00:00,SystemResetWarning,0813.2,5.00,000.00,020.4,019.8,000.0,028.7,021.7,7.9,0000.0,0008.66,0002.53,0001.66
2024-01-07 23:01:00,SystemResetWarning,0813.2,5.00,000.00,020.4,019.8,000.0,028.7,021.7,7.9,0000.0,0009.07,0002.58,0001.66
2024-01-07 23:02:00,SystemResetWarning,0813.2,5.00,000.00,020.4,019.8,000.0,028.7,021.7,7.9,0000.0,0009.58,0002.58,0001.66
2024-01-07 23:03:00,SystemResetWarning,0813.2,5.00,000.00,020.4,019.8,000.0,028.7,021.7,7.9,0000.0,0010.23,0002.71,0001.68
2024-01-07 23:04:00,SystemResetWarning,0813.2,4.99,000.00,020.4,019.8,000.0,028.7,021.7,8.0,0000.0,0010.52,0002.81,0001.69
2024-01-07 23:05:00,SystemResetWarning,0813.3,4.99,000.00,020.4,019.9,000.0,028.7,021.7,7.9,0000.0,0010.71,0002.85,0001.72
2024-01-07 23:06:00,SystemResetWarning,0813.4,4.99,000.00,020.4,019.9,000.0,028.7,021.8,8.0,0000.0,0011.75,0002.87,0001.74
2024-01-07 23:07:00,SystemResetWarning,0813.3,5.00,000.00,020.4,019.9,000.0,028.7,021.7,7.9,0000.0,0011.08,0002.90,0001.76
2024-01-07 23:08:00,SystemResetWarning,0813.3,5.00,000.00,020.4,019.9,000.0,028.7,021.8,8.0,0000.0,0011.36,0003.03,0001.75
2024-01-07 23:09:00,SystemResetWarning,0813.3,5.01,000.00,020.5,019.9,000.0,028.7,021.8,8.0,0000.0,0012.23,0003.08,0001.74
2024-01-07 23:10:00,SystemResetWarning,0813.3,5.00,000.00,020.5,019.9,000.0,028.7,021.8,8.0,0000.0,0012.60,0003.04,0001.74
2024-01-07 23:11:00,SystemResetWarning,0813.4,5.00,000.00,020.5,019.9,000.0,028.7,021.8,8.0,0000.0,0012.77,0003.01,0001.73
2024-01-07 23:12:00,SystemResetWarning,0813.4,4.99,000.00,020.5,019.9,000.0,028.8,021.8,8.0,0000.0,0012.74,0003.00,0001.75
2024-01-07 23:13:00,SystemResetWarning,0813.3,5.00,000.00,020.5,019.9,000.0,028.8,021.8,8.0,0000.0,0012.24,0003.00,0001.77
2024-01-07 23:14:00,SystemResetWarning,0813.4,5.00,000.00,020.5,019.9,000.0,028.8,021.8,8.0,0000.0,0012.70,0002.93,0001.76
2024-01-07 23:15:00,SystemResetWarning,0813.4,5.00,000.00,020.5,019.9,000.0,028.8,021.8,8.0,0000.0,0012.70,0002.92,0001.76
2024-01-07 23:16:00,SystemResetWarning,0813.4,5.00,000.00,020.5,019.9,000.0,028.8,021.7,8.0,0000.0,0012.34,0002.88,0001.74
2024-01-07 23:17:00,SystemResetWarning,0813.4,5.00,000.00,020.5,019.8,000.0,028.8,021.7,8.0,0000.0,0011.24,0002.88,0001.75
2024-01-07 23:18:00,SystemResetWarning,0813.4,5.00,000.00,020.5,019.8,000.0,028.8,021.7,8.0,0000.0,0012.27,0002.87,0001.74
2024-01-07 23:19:00,SystemResetWarning,0813.5,5.00,000.00,020.5,019.8,000.0,028.8,021.7,8.0,0000.0,0011.86,0002.76,0001.75
2024-01-07 23:20:00,SystemResetWarning,0813.5,5.00,000.00,020.5,019.8,000.0,028.8,021.7,8.0,0000.0,0011.11,0002.66,0001.75
2024-01-07 23:21:00,SystemResetWarning,0813.5,5.00,000.00,020.5,019.8,000.0,028.8,021.7,8.0,0000.0,0010.65,0002.61,0001.74
2024-01-07 23:22:00,SystemResetWarning,0813.5,5.00,000.00,020.5,019.8,000.0,028.8,021.7,8.0,0000.0,0010.35,0002.59,0001.75
2024-01-07 23:23:00,SystemResetWarning,0813.5,5.00,000.00,020.5,019.7,000.0,028.8,021.7,7.9,0000.0,0009.99,0002.54,0001.76
2024-01-07 23:24:00,SystemResetWarning,0813.5,5.00,000.00,020.5,019.7,000.0,028.8,021.7,7.9,0000.0,0010.13,0002.49,0001.74
2024-01-07 23:25:00,SystemResetWarning,0813.5,5.00,000.00,020.5,019.7,000.0,028.8,021.7,7.9,0000.0,0010.33,0002.52,0001.74
2024-01-07 23:26:00,SystemResetWarning,0813.5,5.00,000.00,020.5,019.7,000.0,028.8,021.7,7.9,0000.0,0009.67,0002.55,0001.74
2024-01-07 23:27:00,SystemResetWarning,0813.5,5.00,000.00,020.5,019.7,000.0,028.8,021.7,7.9,0000.0,0009.85,0002.63,0001.75
2024-01-07 23:28:00,SystemResetWarning,0813.5,5.00,000.00,020.5,019.7,000.0,028.8,021.7,7.9,0000.0,0009.73,0002.63,0001.75
2024-01-07 23:29:00,SystemResetWarning,0813.5,5.00,000.00,020.5,019.8,000.0,028.8,021.7,7.9,0000.0,0008.86,0002.65,0001.76
2024-01-07 23:30:00,SystemResetWarning,0813.5,4.99,000.00,020.5,019.7,000.0,028.8,021.7,7.8,0000.0,0008.76,0002.72,0001.77
2024-01-07 23:31:00,SystemResetWarning,0813.5,5.00,000.00,020.5,019.7,000.0,028.8,021.7,7.8,0000.0,0009.23,0002.76,0001.79
2024-01-07 23:32:00,SystemResetWarning,0813.5,5.01,000.00,020.5,019.7,000.0,028.8,021.7,7.8,0000.0,0009.61,0002.87,0001.82
2024-01-07 23:33:00,SystemResetWarning,0813.5,4.99,000.00,020.5,019.8,000.0,028.8,021.7,7.8,0000.0,0009.57,0003.04,0001.84
2024-01-07 23:34:00,SystemResetWarning,0813.5,5.00,000.00,020.5,019.8,000.0,028.8,021.8,7.8,0000.0,0009.79,0003.08,0001.85
2024-01-07 23:35:00,SystemResetWarning,0813.5,5.00,000.00,020.5,019.8,000.0,028.8,021.7,7.7,0000.0,0009.85,0003.11,0001.87
2024-01-07 23:36:00,SystemResetWarning,0813.5,5.00,000.00,020.5,019.8,000.0,028.8,021.7,7.7,0000.0,0009.58,0003.14,0001.92
2024-01-07 23:37:00,SystemResetWarning,0813.5,5.01,000.00,020.5,019.8,000.0,028.8,021.7,7.7,0000.0,0009.39,0003.15,0001.94
2024-01-07 23:38:00,SystemResetWarning,0813.5,5.01,000.00,020.5,019.8,000.0,028.8,021.7,7.7,0000.0,0010.36,0003.13,0001.97
2024-01-07 23:39:00,SystemResetWarning,0813.5,5.00,000.00,020.5,019.8,000.0,028.8,021.7,7.6,0000.0,0010.78,0003.18,0001.99
2024-01-07 23:40:00,SystemResetWarning,0813.5,5.00,000.00,020.5,019.8,000.0,028.8,021.8,7.6,0000.0,0012.28,0003.24,0002.01
2024-01-07 23:41:00,SystemResetWarning,0813.6,5.00,000.00,020.5,019.8,000.0,028.8,021.8,7.6,0000.0,0014.04,0003.29,0002.03
2024-01-07 23:42:00,SystemResetWarning,0813.5,5.00,000.00,020.5,019.9,000.0,028.8,021.8,7.6,0000.0,0013.62,0003.34,0002.05
2024-01-07 23:43:00,SystemResetWarning,0813.6,5.00,000.00,020.5,019.9,000.0,028.8,021.8,7.5,0000.0,0013.51,0003.34,0002.06
2024-01-07 23:44:00,SystemResetWarning,0813.6,5.00,000.00,020.5,019.9,000.0,028.8,021.8,7.5,0000.0,0013.60,0003.31,0002.09
2024-01-07 23:45:00,SystemResetWarning,0813.6,4.99,000.00,020.5,019.9,000.0,028.8,021.8,7.5,0000.0,0013.99,0003.34,0002.10
2024-01-07 23:46:00,SystemResetWarning,0813.6,5.00,000.00,020.5,019.9,000.0,028.8,021.8,7.5,0000.0,0014.52,0003.37,0002.12
2024-01-07 23:47:00,SystemResetWarning,0813.6,5.00,000.00,020.5,019.9,000.0,028.8,021.8,7.5,0000.0,0014.39,0003.40,0002.11
2024-01-07 23:48:00,SystemResetWarning,0813.6,5.00,000.00,020.5,019.9,000.0,028.8,021.8,7.5,0000.0,0014.71,0003.41,0002.11
2024-01-07 23:49:00,SystemResetWarning,0813.5,5.00,000.00,020.5,019.9,000.0,028.8,021.8,7.5,0000.0,0014.80,0003.44,0002.12
2024-01-07 23:50:00,SystemResetWarning,0813.6,5.00,000.00,020.6,019.9,000.0,028.8,021.8,7.5,0000.0,0015.25,0003.44,0002.12
2024-01-07 23:51:00,SystemResetWarning,0813.6,5.00,000.00,020.6,020.0,000.0,028.8,021.8,7.5,0000.0,0015.12,0003.43,0002.12
2024-01-07 23:52:00,SystemResetWarning,0813.6,5.00,000.00,020.6,020.0,000.0,028.8,021.9,7.5,0000.0,0012.64,0003.44,0002.11
2024-01-07 23:53:00,SystemResetWarning,0813.6,5.00,000.00,020.6,020.0,000.0,028.9,021.9,7.4,0000.0,0012.48,0003.38,0002.10
2024-01-07 23:54:00,SystemResetWarning,0813.6,5.00,000.00,020.6,020.0,000.0,028.9,021.9,7.4,0000.0,0012.74,0003.38,0002.08
2024-01-07 23:55:00,SystemResetWarning,0813.8,5.00,000.00,020.6,020.0,000.0,028.9,021.9,7.4,0000.0,0013.06,0003.38,0002.08
2024-01-07 23:56:00,SystemResetWarning,0813.7,5.00,000.00,020.6,020.0,000.0,028.9,021.9,7.4,0000.0,0013.31,0003.38,0002.06
2024-01-07 23:57:00,SystemResetWarning,0813.7,5.01,000.00,020.6,020.0,000.0,028.9,021.9,7.4,0000.0,0013.45,0003.37,0002.05
2024-01-07 23:58:00,SystemResetWarning,0813.7,5.01,000.00,020.6,020.0,000.0,028.9,021.9,7.4,0000.0,0013.63,0003.36,0002.04
2024-01-07 23:59:00,SystemResetWarning,0813.7,5.00,000.00,020.6,020.0,000.0,028.9,021.9,7.3,0000.0,0013.29,0003.34,0002.04
